sat.trackr.live / text

‹ back to catalog

TIANPING 3A-01

NORAD 61614 · 2024-189A

PAYLOAD ACTIVE UNKNOWN

§ Identity

Operator
Country
PRC
Launch date
2024-10-22
Launch site
TAISC
Launch vehicle
Mass (kg)
RCS (m²)

External: N2YO · Heavens-Above · Gunter

§ Orbital elements

Epoch: 2026-05-25T04:21:08.519040Z

Period
95.94 min
Inclination
97.5221°
Eccentricity
0.0003111
Mean motion
15.01010403 rev/d
Perigee alt
561.6 km
Apogee alt
565.9 km
Semi-major
6,941.9 km
B*
2.1503e-4
RAAN
166.1384°
Arg perigee
70.1770°
Mean anomaly
289.9789°
Rev number
8,703

§ Raw data

TIANPING 3A-011 61614U 24189A   26145.18134860  .00002688  00000+0  21503-3 0  99982 61614  97.5221 166.1384 0003111  70.1770 289.9789 15.01010403 87038

JSON: /api/v1/satellites/61614 · /tle

For live sub-satellite position, see the globe view (requires WebGL).

§ Visibility from observer

Set your observer location to see the next 7 days of passes ≥ 10°. The values pass through the URL so the page stays shareable.

No JS? Fill the form by hand. The geolocation button needs JavaScript.